Precipitable_Water
0.22 0.23 0.25 0.27 0.29 0.36 0.38 0.38 0.37 0.45 0.48 0.46 0.40 0.38 0.40 0.39 0.43 0.49 0.55 0.64 0.75 0.77 0.86 1.00 1.21 1.29 1.34 1.34 1.38 1.34 1.26 1.25 1.25 1.29 1.31 1.31 1.29 1.24 1.26 1.26 1.21 1.19 1.14 1.11
0.20 0.20 0.24 0.28 0.31 0.36 0.39 0.38 0.39 0.46 0.49 0.62 0.61 0.51 0.45 0.47 0.50 0.53 0.62 0.63 0.69 0.77 0.82 0.85 1.03 1.16 1.29 1.32 1.36 1.37 1.27 1.20 1.30 1.35 1.32 1.28 1.27 1.27 1.27 1.22 1.17 1.20 1.17 1.15
0.15 0.25 0.31 0.26 0.29 0.34 0.40 0.43 0.40 0.38 0.50 0.60 0.57 0.60 0.59 0.59 0.59 0.57 0.65 0.75 0.75 0.69 0.79 0.83 0.90 1.08 1.20 1.32 1.39 1.30 1.23 1.23 1.19 1.27 1.24 1.24 1.25 1.24 1.20 1.16 1.16 1.14 1.17 1.17
0.20 0.28 0.21 0.30 0.49 0.43 0.53 0.54 0.52 0.53 0.60 0.67 0.65 0.75 0.77 0.79 0.70 0.66 0.70 0.73 0.78 0.78 0.76 0.89 0.92 1.08 1.25 1.40 1.34 1.30 1.15 1.18 1.17 1.17 1.18 1.22 1.19 1.14 1.13 1.15 1.13 1.13 1.16 1.16
0.25 0.27 0.37 0.45 0.56 0.50 0.52 0.49 0.57 0.58 0.68 0.76 0.85 0.88 0.82 0.93 0.90 0.84 0.85 0.87 0.85 0.86 0.71 0.89 0.98 1.06 1.21 1.30 1.34 1.30 1.13 1.19 1.21 1.20 1.10 1.11 1.07 1.06 1.07 1.08 1.12 1.12 1.16 1.16
0.30 0.26 0.30 0.49 0.65 0.71 0.67 0.45 0.64 0.67 0.72 0.80 0.84 0.61 0.74 0.97 0.98 0.98 1.03 1.06 0.86 0.73 0.68 0.89 1.00 1.13 1.20 1.25 1.27 1.20 1.09 1.19 1.21 1.13 1.10 1.02 1.04 1.03 1.06 1.10 1.09 1.15 1.14 1.18
0.30 0.29 0.40 0.61 0.73 0.75 0.47 0.50 0.72 0.76 0.82 0.91 0.81 0.88 0.99 1.06 1.02 1.08 1.08 1.05 0.90 0.87 0.80 0.86 1.05 1.14 1.20 1.27 1.25 1.22 1.24 1.38 1.37 1.28 1.17 1.18 1.14 1.19 1.19 1.19 1.20 1.23 1.24 1.32
0.36 0.33 0.32 0.70 0.74 0.58 0.65 0.78 0.81 0.87 0.92 0.96 0.97 1.01 1.06 1.09 1.07 1.09 1.19 1.13 1.11 1.03 1.01 1.03 1.12 1.14 1.18 1.23 1.46 1.39 1.32 1.44 1.49 1.48 1.45 1.46 1.43 1.46 1.50 1.53 1.53 1.54 1.55 1.58
0.44 0.45 0.63 0.73 0.74 0.80 0.84 0.84 0.85 0.90 0.96 0.94 0.93 0.94 0.99 1.03 1.10 1.18 1.30 1.27 1.32 1.24 1.21 1.24 1.31 1.36 1.28 1.38 1.50 1.39 1.40 1.42 1.45 1.55 1.59 1.64 1.60 1.58 1.59 1.64 1.61 1.66 1.68 1.66
0.50 0.59 0.64 0.74 0.79 0.85 0.88 0.89 0.89 0.95 0.96 0.96 0.91 0.94 0.92 0.99 1.04 1.19 1.36 1.35 1.43 1.36 1.33 1.35 1.50 1.59 1.59 1.60 1.75 1.49 1.42 1.46 1.45 1.46 1.52 1.63 1.67 1.71 1.67 1.64 1.63 1.62 1.56 1.55
0.53 0.63 0.72 0.75 0.79 0.85 0.87 0.91 0.89 0.93 0.97 0.94 0.94 0.91 0.92 0.93 0.95 1.06 1.24 1.36 1.48 1.47 1.47 1.50 1.59 1.60 1.72 1.71 1.78 1.56 1.56 1.50 1.49 1.58 1.56 1.59 1.74 1.70 1.70 1.74 1.73 1.64 1.67 1.67
0.47 0.63 0.67 0.73 0.84 0.88 0.85 0.87 0.90 0.93 0.94 0.96 0.96 0.93 0.90 0.94 0.96 1.00 1.12 1.23 1.32 1.43 1.50 1.54 1.58 1.66 1.72 1.78 1.73 1.76 1.72 1.69 1.66 1.69 1.71 1.72 1.64 1.63 1.75 1.77 1.82 1.82 1.88 1.84
0.61 0.72 0.78 0.82 0.84 0.89 0.85 0.86 0.88 0.92 0.95 0.97 0.97 0.97 0.93 0.92 0.96 0.98 1.03 1.08 1.11 1.20 1.42 1.53 1.54 1.55 1.69 1.72 1.73 1.66 1.67 1.76 1.83 1.79 2.06 1.72 1.66 1.54 1.49 1.56 1.66 1.77 1.84 1.84
0.75 0.74 0.69 0.77 0.78 0.88 0.90 0.88 0.90 0.93 0.96 1.02 1.00 0.94 0.96 0.95 0.95 0.96 0.97 1.02 1.04 1.06 1.18 1.38 1.39 1.36 1.48 1.56 1.60 1.62 1.66 1.57 1.54 1.78 1.69 1.63 1.51 1.47 1.44 1.43 1.44 1.50 1.63 1.65
0.72 0.76 0.75 0.80 0.82 0.86 0.93 0.89 0.85 0.87 0.91 0.95 0.99 1.00 0.98 1.00 0.97 0.96 0.97 0.96 0.97 0.98 1.01 1.16 1.27 1.28 1.32 1.35 1.38 1.50 1.51 1.43 1.54 1.58 1.50 1.38 1.32 1.30 1.28 1.29 1.29 1.34 1.41 1.52
0.63 0.70 0.73 0.71 0.72 0.78 0.87 0.87 0.83 0.88 0.90 0.95 1.04 1.10 1.10 1.04 1.02 1.03 0.99 0.94 0.89 0.88 0.94 0.98 1.07 1.22 1.31 1.34 1.42 1.40 1.37 1.38 1.38 1.32 1.25 1.23 1.22 1.21 1.24 1.28 1.30 1.30 1.27 1.27
0.49 0.54 0.61 0.63 0.65 0.68 0.73 0.86 0.87 0.85 0.86 0.89 1.00 1.08 1.09 1.14 1.06 1.00 1.03 1.02 0.96 0.93 0.95 0.96 0.92 1.02 1.17 1.32 1.32 1.35 1.33 1.36 1.39 1.36 1.31 1.33 1.34 1.31 1.31 1.31 1.27 1.29 1.29 1.37
0.45 0.50 0.62 0.62 0.61 0.64 0.67 0.71 0.77 0.80 0.78 0.81 0.89 0.96 0.98 1.05 1.05 1.04 1.08 1.10 1.06 1.02 0.99 0.96 0.99 0.98 1.00 1.19 1.34 1.39 1.34 1.30 1.34 1.33 1.38 1.38 1.36 1.39 1.35 1.33 1.32 1.33 1.39 1.42
0.45 0.42 0.43 0.51 0.57 0.58 0.60 0.64 0.66 0.69 0.73 0.75 0.74 0.77 0.83 0.90 0.98 1.02 1.09 1.08 1.05 1.01 1.07 1.09 1.03 0.98 1.01 1.11 1.24 1.37 1.40 1.35 1.29 1.21 1.14 1.19 1.20 1.22 1.21 1.20 1.18 1.24 1.26 1.25
0.44 0.44 0.44 0.43 0.44 0.51 0.54 0.59 0.62 0.66 0.68 0.69 0.68 0.67 0.68 0.70 0.80 0.86 0.93 1.00 1.13 1.12 1.15 1.15 1.20 1.12 1.02 1.06 1.26 1.34 1.38 1.37 1.31 1.27 1.23 1.17 1.15 1.11 1.14 1.15 1.14 1.13 1.16 1.21
0.47 0.45 0.43 0.43 0.43 0.44 0.48 0.56 0.57 0.56 0.63 0.68 0.65 0.65 0.65 0.66 0.68 0.69 0.69 0.69 0.80 0.91 0.93 1.02 1.20 1.18 1.19 1.18 1.20 1.31 1.31 1.34 1.30 1.21 1.14 1.11 1.15 1.13 1.08 1.08 1.10 1.12 1.14 1.13
0.49 0.47 0.46 0.44 0.42 0.42 0.46 0.46 0.50 0.55 0.57 0.59 0.64 0.65 0.66 0.66 0.66 0.65 0.67 0.64 0.69 0.72 0.76 0.80 0.97 1.14 1.08 1.24 1.32 1.29 1.31 1.26 1.29 1.30 1.20 1.17 1.19 1.19 1.17 1.10 1.08 1.09 1.04 1.05
0.49 0.49 0.49 0.47 0.45 0.45 0.46 0.43 0.44 0.44 0.51 0.57 0.58 0.60 0.62 0.64 0.66 0.63 0.60 0.68 0.69 0.70 0.71 0.71 0.75 0.90 0.96 1.04 1.30 1.30 1.29 1.29 1.31 1.31 1.35 1.28 1.20 1.21 1.17 1.11 1.07 1.02 1.01 0.98
0.42 0.44 0.43 0.45 0.44 0.42 0.37 0.39 0.39 0.42 0.41 0.46 0.54 0.61 0.59 0.58 0.63 0.69 0.71 0.71 0.71 0.70 0.73 0.75 0.77 0.83 0.89 0.91 0.95 1.07 1.07 1.14 1.16 1.23 1.26 1.25 1.15 1.13 1.10 1.03 0.99 0.97 0.95 0.93
0.40 0.38 0.38 0.38 0.35 0.32 0.34 0.36 0.38 0.39 0.41 0.43 0.43 0.50 0.60 0.64 0.61 0.66 0.69 0.71 0.74 0.73 0.72 0.77 0.82 0.84 0.86 0.86 0.87 0.91 1.00 1.09 1.08 1.11 1.08 1.07 1.02 0.92 0.89 0.87 0.86 0.83 0.83 0.82
0.38 0.36 0.36 0.37 0.34 0.33 0.33 0.33 0.33 0.36 0.37 0.36 0.38 0.43 0.47 0.54 0.63 0.66 0.68 0.69 0.72 0.74 0.74 0.75 0.80 0.82 0.80 0.82 0.84 0.84 0.90 0.89 0.91 0.91 0.92 0.93 0.91 0.87 0.86 0.83 0.81 0.80 0.77 0.77
0.39 0.37 0.38 0.36 0.36 0.36 0.35 0.34 0.34 0.35 0.37 0.37 0.37 0.41 0.43 0.46 0.51 0.61 0.64 0.66 0.68 0.71 0.74 0.75 0.77 0.79 0.81 0.81 0.80 0.81 0.81 0.82 0.83 0.82 0.82 0.79 0.79 0.79 0.77 0.75 0.71 0.69 0.69 0.68
Wind_Speed
33 36 38 42 43 42 42 44 43 41 38 35 35 30 26 25 27 28 30 31 32 32 30 31 32 33 33 32 32 33 34 35 35 35 35 34 32 31 30 28 27 26 24 23
34 36 38 45 47 46 45 46 44 35 32 25 27 31 31 29 29 31 31 32 32 32 32 30 32 34 33 33 32 32 33 33 34 35 35 34 33 32 31 30 28 27 26 25
29 26 29 42 50 48 43 42 46 44 33 23 23 25 26 26 27 30 31 32 33 34 34 33 33 34 33 33 32 32 31 32 33 33 34 34 34 33 32 31 29 28 26 26
20 20 27 32 35 47 39 33 35 37 31 27 25 24 23 22 25 27 30 32 34 35 36 35 34 34 33 33 32 32 31 31 31 32 33 33 33 32 32 30 29 28 27 26
13 14 17 28 28 42 38 29 28 29 28 28 27 26 25 20 23 26 28 31 35 37 37 36 35 34 34 33 32 31 30 30 30 31 31 32 32 31 31 30 29 28 26 25
13 13 12 26 28 34 34 26 24 26 24 26 27 27 23 20 21 21 23 26 32 36 39 39 37 35 34 33 31 31 31 30 29 29 30 30 30 30 30 29 28 27 26 25
17 17 10 19 26 33 30 26 23 23 22 20 24 22 21 17 15 15 16 19 26 32 36 41 39 36 34 33 31 30 30 30 29 29 29 29 28 28 28 28 27 26 25 25
17 13 11 15 28 28 27 23 22 21 20 20 20 20 17 13 10 9 11 14 18 25 31 36 37 35 33 33 31 30 29 29 29 30 29 29 29 28 28 28 27 26 26 25
12 6 9 17 24 25 24 22 20 20 20 20 19 18 16 12 10 8 12 15 17 23 27 29 31 31 31 31 32 31 29 29 29 29 29 28 28 28 27 28 27 26 26 25
14 7 9 16 20 21 21 20 20 20 19 18 18 17 16 13 11 11 13 15 18 21 23 24 25 26 27 28 29 31 29 29 29 30 30 29 28 28 28 27 27 26 26 25
9 6 7 13 16 18 19 18 18 20 18 17 17 17 17 15 13 13 13 15 17 19 20 20 21 22 23 25 28 31 30 30 30 29 31 31 30 28 29 28 28 27 27 27
5 6 13 12 13 16 17 17 17 18 18 18 18 18 17 16 14 14 14 14 15 16 17 18 19 21 20 22 24 26 28 29 30 30 30 30 30 29 28 28 28 29 28 28
3 7 9 11 14 15 18 18 18 19 19 19 18 18 18 17 16 15 15 14 14 14 15 16 17 19 20 21 22 23 25 26 26 25 30 30 27 27 26 26 28 28 29 28
2 2 6 9 12 15 15 17 19 20 19 19 19 19 20 19 18 17 17 16 15 15 15 15 17 17 17 19 23 24 23 27 29 28 25 23 24 25 25 26 26 27 27 27
6 1 4 5 7 11 16 16 18 19 20 20 20 22 21 22 21 20 19 19 18 18 17 17 18 17 17 17 19 21 21 21 23 25 24 25 25 25 25 25 26 26 26 26
13 5 1 2 4 5 8 13 18 19 21 22 21 20 22 23 24 24 23 22 20 20 20 20 20 20 19 19 20 22 21 20 21 22 22 21 20 20 22 23 24 25 25 25
12 11 7 2 2 4 7 7 13 17 20 21 23 23 24 23 25 24 27 26 26 25 24 23 23 23 22 22 21 22 23 22 21 21 21 21 21 21 21 21 21 21 21 21
12 10 9 7 5 3 6 7 10 13 16 19 21 24 25 24 26 27 28 28 29 30 28 26 26 25 25 25 25 25 24 23 22 22 22 22 23 22 21 21 21 21 20 20
10 10 9 8 8 6 4 4 6 10 14 17 21 22 23 25 28 28 30 30 29 30 32 32 30 29 29 28 28 29 28 27 26 25 23 23 23 23 22 21 21 22 22 21
8 8 8 7 7 7 6 5 5 6 9 11 15 18 21 22 24 25 28 30 32 35 35 36 38 36 33 32 31 32 32 31 30 29 28 27 26 27 26 24 23 23 22 22
7 7 7 7 7 6 6 6 6 6 6 9 12 13 16 19 21 22 24 27 30 30 34 36 41 41 39 37 36 36 35 34 33 32 31 30 29 28 29 27 26 26 26 26
9 8 8 8 8 7 7 6 6 6 6 6 7 11 14 17 19 21 22 25 27 28 30 32 35 39 41 44 43 40 39 37 36 36 34 33 32 31 30 30 29 28 28 28
10 10 10 10 9 9 8 7 6 7 7 7 6 7 9 13 16 18 21 22 24 26 27 29 31 35 37 38 43 40 40 39 40 38 36 35 33 32 32 31 30 30 29 29
10 10 10 10 10 9 8 7 7 7 7 7 7 6 7 9 11 13 16 18 19 20 22 25 26 27 30 32 36 38 37 34 34 33 32 34 32 32 31 31 31 31 30 29
8 8 9 8 8 8 8 8 8 8 8 8 7 6 5 5 6 9 10 12 14 14 15 17 19 21 25 27 29 30 32 31 30 28 27 28 29 29 29 30 30 29 30 31
8 8 9 8 8 8 8 8 8 9 9 8 8 7 6 6 6 6 6 7 8 8 9 9 10 13 17 20 22 24 26 27 28 29 28 27 27 28 28 29 29 29 29 30
9 9 8 7 8 8 8 8 8 8 7 8 7 7 8 7 5 5 4 3 3 3 3 2 3 5 8 11 14 16 19 22 24 24 25 26 27 28 28 29 29 30 31 30
Wind_Direction
248 248 245 239 233 230 227 226 221 225 226 225 225 227 224 221 218 215 217 217 216 214 214 213 212 212 211 210 211 212 213 214 215 216 217 218 219 219 220 221 223 225 227 228
254 251 240 235 228 225 224 223 223 223 222 219 222 224 225 224 223 223 222 221 220 216 214 214 214 210 212 212 212 211 213 214 215 216 217 217 218 219 220 222 223 225 227 228
251 246 237 228 220 217 218 218 214 215 216 220 217 215 215 220 223 224 223 225 224 221 218 217 214 210 211 211 211 211 212 213 214 214 215 216 218 218 220 221 223 225 227 229
240 244 221 212 210 203 206 205 209 210 214 219 220 208 208 218 224 227 230 229 227 224 220 216 214 213 210 209 210 210 212 212 213 214 215 215 216 217 218 221 222 224 226 228
220 222 224 189 190 187 196 200 207 208 212 212 212 211 216 223 228 232 233 233 228 224 219 215 212 209 208 208 209 210 212 212 213 212 213 214 215 215 217 219 221 222 224 226
211 206 201 185 196 197 198 199 208 206 206 210 211 211 215 229 233 233 236 234 226 220 214 208 206 204 204 205 207 209 209 209 209 209 210 210 212 214 215 217 219 220 223 225
211 199 229 199 198 192 197 195 201 198 199 197 201 207 216 220 225 230 236 223 217 209 207 205 203 202 203 205 206 206 205 206 207 207 207 208 209 211 213 214 217 219 223 227
186 206 214 202 184 185 186 186 189 186 188 188 189 194 198 201 210 215 207 195 194 193 192 191 194 198 203 205 205 205 204 206 208 209 209 211 212 213 214 216 219 223 227 231
179 170 164 158 161 170 177 181 182 180 182 186 184 187 187 187 185 180 175 173 170 171 175 183 192 198 201 204 204 203 205 207 207 207 208 210 212 213 215 218 222 225 229 232
178 158 143 153 164 169 174 178 180 180 180 181 184 182 181 178 169 162 164 168 168 168 172 180 189 196 198 204 202 205 207 207 209 209 210 212 214 216 219 222 224 227 230 232
178 184 154 160 169 177 182 182 181 184 184 183 183 184 183 179 171 170 165 166 167 173 177 182 189 193 199 204 205 209 208 211 210 211 214 215 218 222 224 226 228 230 233 236
190 227 210 204 189 185 184 187 189 190 193 191 194 195 192 188 188 182 174 171 172 175 180 185 191 194 199 203 206 206 209 214 216 218 218 218 220 223 227 230 234 235 239 241
244 233 203 202 203 199 203 202 201 201 200 201 203 202 200 199 198 194 191 187 186 188 190 192 193 198 204 206 208 209 213 212 214 219 220 222 221 222 228 232 235 238 241 243
17 201 204 206 209 206 208 208 206 207 204 206 209 211 210 207 207 206 205 207 207 202 200 202 202 205 211 217 219 215 221 227 233 240 226 229 226 228 230 234 236 239 241 243
23 84 176 193 206 216 214 209 208 212 215 218 220 221 221 219 218 216 217 219 220 217 216 216 215 217 221 223 222 220 223 221 219 223 227 231 233 234 236 237 239 239 240 243
27 32 76 189 211 217 219 218 220 222 223 223 223 224 222 226 226 225 227 229 227 228 230 228 226 228 229 230 229 226 226 226 226 227 229 231 231 232 235 236 237 238 240 242
22 26 29 357 275 249 232 224 224 228 228 230 230 232 232 229 229 233 234 234 234 235 236 234 235 236 236 235 235 231 230 231 233 233 233 233 233 234 236 236 236 236 237 239
26 25 27 28 17 308 259 261 249 240 238 235 235 237 239 240 238 239 240 240 238 239 238 242 242 243 241 240 239 234 232 231 231 233 234 233 233 234 235 233 234 234 236 239
23 24 21 19 18 16 353 300 279 254 245 243 241 242 243 242 242 245 242 238 242 243 243 244 246 245 243 244 243 238 236 234 234 234 235 234 234 233 234 234 235 236 239 242
3 7 9 8 6 2 353 349 335 291 263 251 245 244 246 246 247 247 246 244 244 248 250 248 245 244 245 243 243 239 238 237 237 238 239 240 238 236 236 237 238 239 242 246
327 338 348 349 347 344 342 334 331 329 300 271 259 253 248 247 249 248 250 250 256 255 252 250 244 243 243 243 242 239 238 238 238 239 239 240 239 238 237 239 241 244 246 250
308 309 313 321 327 327 326 322 319 320 323 300 275 264 255 253 253 251 254 256 260 263 257 252 246 243 246 243 239 239 239 238 240 239 241 241 240 239 239 240 242 245 249 252
298 296 299 301 306 311 313 313 308 311 318 320 304 280 266 260 258 258 258 264 265 265 261 258 257 248 245 242 235 237 237 240 241 242 238 237 237 238 238 240 242 247 250 251
302 299 301 298 300 302 305 305 308 298 299 306 315 294 284 273 264 263 264 267 276 276 268 264 256 249 245 241 236 236 236 236 235 236 231 232 234 236 236 241 243 246 249 249
307 306 307 301 300 302 300 293 297 302 292 285 289 293 295 300 282 271 276 275 280 289 279 271 256 251 243 240 236 232 230 227 225 226 229 231 233 235 239 241 244 245 248 251
305 308 306 297 300 301 301 297 294 296 291 282 278 273 278 292 307 306 292 297 288 290 292 274 265 253 240 235 231 223 220 219 223 225 228 234 236 239 243 242 245 248 253 254
294 302 299 292 297 299 298 298 298 299 288 279 275 277 271 274 289 316 323 316 327 308 328 269 245 224 208 203 201 203 205 213 219 224 231 237 239 241 243 244 249 254 256 258